Flag for Malaysia Weather past 2 weeks in Kuala Lumpur, Malaysia

Now
81 °F

Partly cloudy.


Feels Like: 87 °F
Forecast: 77 / 88 °F
Wind: 3 mph from South

Location: Sultan Abdul Aziz Shah-Subang

Current Time: May 23, 2015 at 2:42:56 AM

Latest Report: May 23, 2015 at 2:00 AM


Visibility: 5 mi

Pressure: 29.89 "Hg

Humidity: 89%

Dew point: 77 °F

Location of Kuala LumpurLocation

Historic Weather in Kuala Lumpur — Graph

°F

Kuala Lumpur temperature yesterday

Maximum temperature yesterday: 93 °F (at 3:00 PM)
Minimum temperature yesterday: 79 °F (at 2:00 AM)
Average temperature yesterday: 84 °F

Past Weeks' High & Low Weather Summary

 TemperatureHumidityPressure
High95 °F (May 9, 3:00 PM)94% (May 12, 4:00 PM)29.92 "Hg (May 12, 4:00 PM)
Low75 °F (May 18, 4:00 AM)53% (May 22, 4:00 PM)29.71 "Hg (May 9, 4:00 PM)
Average84 °F80%29.83 "Hg
* Reported May 8 1:00 AM — May 23 1:00 AM, Kuala Lumpur, Weather by CustomWeather, © 2015

Note: Actual official high and low records may vary slightly from our data, if they occured in-between our weather recording intervals... More about our weather records

Advertising

Kuala Lumpur weather history for previous 24 hours

 ConditionsComfort  
Time TempWeatherWind HumidityBarometerVisibility
1:00 AM
Sat, May 23
82 °FPartly cloudy.2 mph84%29.89 "Hg5 mi
12:00 AM82 °FPartly cloudy.3 mph84%29.89 "Hg5 mi
11:00 PM
Fri, May 22
82 °FPartly cloudy.5 mph84%29.89 "Hg5 mi
10:00 PM84 °FPartly cloudy.3 mph79%29.86 "Hg5 mi
9:00 PM84 °FPartly cloudy.5 mph79%29.86 "Hg6 mi
8:00 PM84 °FBroken clouds.3 mph74%29.83 "HgN/A
7:00 PM86 °FBroken clouds.7 mph70%29.80 "HgN/A
6:00 PM88 °FBroken clouds.6 mph66%29.77 "HgN/A
5:00 PM91 °FBroken clouds.8 mph59%29.77 "HgN/A
4:00 PM93 °FPartly sunny.8 mph53%29.77 "HgN/A
3:00 PM93 °FPartly sunny.6 mph56%29.80 "HgN/A
2:00 PM91 °FBroken clouds.6 mph59%29.83 "HgN/A
1:00 PM91 °FBroken clouds.6 mph63%29.86 "HgN/A
12:00 PM88 °FPartly sunny.6 mph75%29.89 "HgN/A
11:00 AM86 °FPartly sunny.5 mph75%29.92 "HgN/A
10:00 AM82 °FThunderstorms. Broken clouds.3 mph84%29.92 "Hg4 mi
9:00 AM82 °FThunderstorms. Broken clouds.3 mph84%29.92 "Hg4 mi
8:00 AM81 °FPartly cloudy.1 mph89%29.89 "Hg6 mi
7:00 AM79 °FPartly cloudy.1 mph89%29.89 "Hg5 mi
6:00 AM79 °FPassing clouds.2 mph89%29.86 "Hg4 mi
5:00 AM79 °FPassing clouds.2 mph94%29.86 "Hg2 mi
4:00 AM79 °FPassing clouds.1 mph94%29.86 "Hg2 mi
3:00 AM79 °FPassing clouds.No wind94%29.86 "Hg3 mi
2:00 AM79 °FPassing clouds.2 mph94%29.86 "Hg3 mi
Weather by CustomWeather, © 2015

See weather overviewHow to use our weather pages